ANZ093 NZDN-YMML

Flight info

Callsign ANZ093
Flight time N/A
Altitude 36000
Route ADKOS P753 TASIS
Aircraft A320/M-SDE3FGHIRWY/LB1

Departure

Time 2026-04-27 04:17
Airport Dunedin International Airport (NZDN)

Arrival

Time N/A
Airport Melbourne Airport (YMML)
Time Latitude Longitude Altitude Speed Heading
2026-04-27 03:51 -45.92437 170.20007 12 ft 0 kts 326°
2026-04-27 04:01 -45.92448 170.20019 13 ft 2 kts 317°
2026-04-27 04:02 -45.92460 170.20035 12 ft 2 kts 302°
2026-04-27 04:02 -45.92467 170.20057 12 ft 2 kts 269°
2026-04-27 04:02 -45.92464 170.20080 12 ft 2 kts 240°
2026-04-27 04:02 -45.92459 170.20091 14 ft 1 kts 235°
2026-04-27 04:03 -45.92459 170.20092 14 ft 0 kts 235°
2026-04-27 04:05 -45.92459 170.20091 12 ft 1 kts 235°
2026-04-27 04:05 -45.92467 170.20073 12 ft 3 kts 237°
2026-04-27 04:06 -45.92473 170.20060 12 ft 0 kts 237°
2026-04-27 04:12 -45.92474 170.20058 12 ft 1 kts 237°
2026-04-27 04:12 -45.92482 170.20041 12 ft 3 kts 237°
2026-04-27 04:12 -45.92528 170.20028 12 ft 12 kts 165°
2026-04-27 04:13 -45.92602 170.20096 12 ft 13 kts 145°
2026-04-27 04:13 -45.92683 170.20170 13 ft 13 kts 162°
2026-04-27 04:13 -45.92753 170.20093 13 ft 14 kts 237°
2026-04-27 04:13 -45.92806 170.19972 14 ft 15 kts 236°
2026-04-27 04:14 -45.92864 170.19848 15 ft 16 kts 236°
2026-04-27 04:14 -45.92930 170.19707 12 ft 18 kts 236°
2026-04-27 04:14 -45.93002 170.19551 12 ft 20 kts 236°
2026-04-27 04:14 -45.93082 170.19377 12 ft 22 kts 237°
2026-04-27 04:15 -45.93168 170.19196 14 ft 22 kts 236°
2026-04-27 04:15 -45.93257 170.19009 14 ft 23 kts 233°
2026-04-27 04:15 -45.93330 170.18827 14 ft 18 kts 278°
2026-04-27 04:15 -45.93359 170.18783 14 ft 4 kts 100°
2026-04-27 04:16 -45.93346 170.18832 16 ft 6 kts 65°
2026-04-27 04:16 -45.93271 170.18994 14 ft 48 kts 56°
2026-04-27 04:16 -45.92957 170.19632 13 ft 106 kts 53°
2026-04-27 04:16 -45.92463 170.20680 16 ft 145 kts 53°
2026-04-27 04:17 -45.91903 170.21887 418 ft 143 kts 55°
2026-04-27 04:17 -45.91363 170.23063 837 ft 143 kts 54°
2026-04-27 04:17 -45.90795 170.24275 1256 ft 145 kts 53°
2026-04-27 04:17 -45.90215 170.25500 1499 ft 156 kts 53°
2026-04-27 04:18 -45.89555 170.26903 1602 ft 180 kts 53°
2026-04-27 04:18 -45.88817 170.28489 1756 ft 203 kts 53°
2026-04-27 04:18 -45.87987 170.30241 1929 ft 226 kts 53°
2026-04-27 04:18 -45.87078 170.32154 2437 ft 234 kts 53°
2026-04-27 04:19 -45.86168 170.34120 3011 ft 241 kts 59°
2026-04-27 04:19 -45.85755 170.36458 3562 ft 248 kts 96°
2026-04-27 04:19 -45.86233 170.38795 4084 ft 244 kts 129°
2026-04-27 04:19 -45.87387 170.40485 4679 ft 234 kts 157°
2026-04-27 04:20 -45.88776 170.41689 5371 ft 234 kts 158°
2026-04-27 04:20 -45.90174 170.42908 6057 ft 236 kts 158°
2026-04-27 04:20 -45.91581 170.44141 6711 ft 238 kts 158°
2026-04-27 04:20 -45.93019 170.45292 7324 ft 233 kts 171°
2026-04-27 04:21 -45.94551 170.45577 7900 ft 218 kts 197°
2026-04-27 04:21 -45.95968 170.44880 8312 ft 219 kts 220°
2026-04-27 04:21 -45.97030 170.43318 8798 ft 222 kts 238°
2026-04-27 04:21 -45.97923 170.41485 9466 ft 226 kts 237°
2026-04-27 04:22 -45.98839 170.39636 10136 ft 228 kts 237°
2026-04-27 04:22 -45.99756 170.37749 10680 ft 235 kts 241°
2026-04-27 04:22 -46.00245 170.35414 10825 ft 258 kts 267°
2026-04-27 04:22 -45.99780 170.32796 10958 ft 288 kts 291°
2026-04-27 04:23 -45.98820 170.30138 11124 ft 308 kts 293°
2026-04-27 04:23 -45.97793 170.27437 11601 ft 315 kts 294°
2026-04-27 04:23 -45.96722 170.24671 12185 ft 319 kts 294°
2026-04-27 04:23 -45.95623 170.21832 12788 ft 322 kts 294°
2026-04-27 04:24 -45.94544 170.19032 13393 ft 326 kts 294°
2026-04-27 04:24 -45.93434 170.16127 13965 ft 330 kts 293°